This is the latest recevied weather packets stored in our database for station/object IZ1UKX-13. If no packets are shown the sender has not sent any weather packets the latest 10 day(s).
| Time | Temp. | Humidity | Pressure | Rain* | Wind** | Luminosity | Snow |
|---|---|---|---|---|---|---|---|
| 1788084046 | 32.78° C | 40% | 1020.5 hPa | 0 mm | - | 0 W/m² | - |
| 1788083746 | 31.67° C | 41% | 1021 hPa | 0 mm | - | 0 W/m² | - |
| 1788083446 | 30.56° C | 42% | 1021 hPa | 0 mm | - | 0 W/m² | - |
| 1788083147 | 30.56° C | 42% | 1021 hPa | 0 mm | - | 0 W/m² | - |
| 1788082847 | 30° C | 43% | 1021 hPa | 0 mm | - | 0 W/m² | - |
| 1788082547 | 30.56° C | 41% | 1021.4 hPa | 0 mm | - | 0 W/m² | - |
| 1788082522 | 30.56° C | 42% | 1021 hPa | 0 mm | - | 0 W/m² | - |
| 1788082495 | 30.56° C | 42% | 1021 hPa | 0 mm | - | 0 W/m² | - |
| 1788082195 | 30.56° C | 41% | 1021 hPa | 0 mm | - | 0 W/m² | - |
| 1788081895 | 31.11° C | 40% | 1021 hPa | 0 mm | - | 0 W/m² | - |
| 1788081595 | 30.56° C | 41% | 1021 hPa | 0 mm | - | 0 W/m² | - |
| 1788081295 | 30.56° C | 41% | 1021 hPa | 0 mm | - | 0 W/m² | - |
| 1788080995 | 31.11° C | 41% | 1021 hPa | 0 mm | - | 0 W/m² | - |
| 1788080695 | 30.56° C | 45% | 1021 hPa | 0 mm | - | 0 W/m² | - |
| 1788080395 | 29.44° C | 46% | 1021 hPa | 0 mm | - | 0 W/m² | - |
| 1788080095 | 30° C | 47% | 1021 hPa | 0 mm | - | 0 W/m² | - |
| 1788079795 | 30.56° C | 48% | 1021 hPa | 0 mm | - | 0 W/m² | - |
| 1788079495 | 30.56° C | 48% | 1021 hPa | 0 mm | - | 0 W/m² | - |
| 1788079195 | 30.56° C | 46% | 1021 hPa | 0 mm | - | 0 W/m² | - |
| 1788078894 | 30° C | 49% | 1021 hPa | 0 mm | - | 0 W/m² | - |
| 1788078595 | 28.89° C | 50% | 1021.4 hPa | 0 mm | - | 0 W/m² | - |
| 1788078295 | 28.33° C | 50% | 1021.4 hPa | 0 mm | - | 0 W/m² | - |
| 1788077995 | 28.33° C | 47% | 1021.4 hPa | 0 mm | - | 0 W/m² | - |
| 1788077695 | 28.89° C | 45% | 1021.4 hPa | 0 mm | - | 0 W/m² | - |
| 1788077395 | 29.44° C | 46% | 1021.4 hPa | 0 mm | - | 0 W/m² | - |
* Rain latest hour (hover to see other rain measurements)
** Current wind speed in m/s (hover to see current wind gust speed)